FW4286 Weather Reports


Display with metric or nautical units.
time (UTC)temp
F
wind
direction
speed
MPH
gust
MPH
rain 1hr
in
rain 24hr
in
rain mn
in
humidity
%
barometer
mb
20260906120003 72 355 4.0 8.0 0.00 0.41 0.01 95 1013.7
20260906115458 72 350 4.0 8.0 0.00 0.41 0.01 95 1013.6
20260906114959 72 5 2.0 5.0 0.00 0.41 0.01 95 1013.5
20260906114458 72 41 2.0 5.0 0.00 0.41 0.01 95 1013.6
20260906114000 73 13 2.0 4.0 0.00 0.41 0.01 95 1013.6
20260906112458 73 22 1.0 4.0 0.00 0.41 0.01 95 1013.5
20260906111959 73 55 2.0 4.0 0.00 0.41 0.01 95 1013.4
20260906111458 73 37 2.0 4.0 0.00 0.41 0.01 95 1013.3
20260906110958 73 78 2.0 4.0 0.00 0.41 0.01 95 1013.3
20260906110459 73 61 2.0 4.0 0.01 0.41 0.01 95 1013.1
20260906110000 73 19 1.0 4.0 0.01 0.41 0.01 95 1013.0
20260906105457 73 54 2.0 8.0 0.01 0.41 0.01 95 1012.9
20260906104958 73 360 2.0 8.0 0.01 0.41 0.01 95 1012.9
20260906104457 73 355 3.0 6.0 0.01 0.41 0.01 95 1012.8
20260906104000 73 51 3.0 6.0 0.01 0.41 0.01 95 1012.8
20260906103457 73 17 3.0 5.0 0.01 0.41 0.01 95 1012.9
20260906102958 73 12 2.0 3.0 0.01 0.41 0.01 95 1012.8
20260906102457 73 46 2.0 3.0 0.01 0.41 0.01 95 1012.7
20260906101957 73 46 1.0 3.0 0.01 0.41 0.01 95 1012.6
20260906101457 73 46 2.0 3.0 0.01 0.41 0.01 95 1012.5
20260906100957 73 46 1.0 1.0 0.01 0.41 0.01 95 1012.4
20260906100457 73 46 0.0 1.0 0.00 0.40 0.00 95 1012.3
20260906095457 73 46 1.0 2.0 0.00 0.40 0.00 95 1012.2
20260906094957 73 46 1.0 2.0 0.00 0.40 0.00 95 1012.2
20260906094458 73 46 1.0 3.0 0.00 0.40 0.00 95 1012.2
20260906093957 73 54 1.0 3.0 0.00 0.40 0.00 95 1012.1
20260906093458 73 54 1.0 3.0 0.00 0.40 0.00 95 1012.2
20260906092957 73 78 1.0 3.0 0.00 0.40 0.00 95 1012.1
20260906092457 73 78 1.0 3.0 0.00 0.40 0.00 95 1012.2
20260906091958 73 94 1.0 4.0 0.00 0.40 0.00 95 1012.2
20260906090957 73 50 2.0 3.0 0.00 0.40 0.00 95 1012.1
20260906090458 73 69 2.0 4.0 0.00 0.40 0.00 95 1012.1
20260906090000 73 46 2.0 6.0 0.00 0.40 0.00 95 1012.1
20260906084958 73 44 2.0 3.0 0.00 0.40 0.00 95 1012.1
20260906084457 73 44 2.0 3.0 0.00 0.40 0.00 95 1012.1
20260906083957 73 64 1.0 3.0 0.00 0.40 0.00 95 1012.0
20260906083457 73 69 2.0 3.0 0.00 0.40 0.00 95 1012.0
20260906082458 73 64 2.0 4.0 0.00 0.40 0.00 95 1011.6
20260906081958 73 53 2.0 4.0 0.00 0.40 0.00 95 1011.7
20260906081457 73 53 2.0 5.0 0.00 0.40 0.00 95 1011.7
20260906080957 73 50 3.0 5.0 0.00 0.40 0.00 95 1011.6
20260906080457 73 63 1.0 3.0 0.00 0.40 0.00 95 1011.4
20260906080001 73 355 0.0 3.0 0.00 0.40 0.00 95 1011.3
20260906075457 73 355 1.0 3.0 0.00 0.40 0.00 95 1011.2
20260906074457 73 22 0.0 0.0 0.00 0.40 0.00 95 1011.2
20260906073957 73 22 0.0 0.0 0.00 0.40 0.00 95 1011.1
20260906072957 73 22 0.0 0.0 0.00 0.40 0.00 95 1011.2
20260906072457 73 360 0.0 0.0 0.00 0.40 0.00 95 1011.2
20260906071458 73 360 0.0 0.0 0.00 0.40 0.00 95 1011.2
20260906070957 73 360 0.0 0.0 0.00 0.40 0.00 95 1011.2
20260906070457 73 360 0.0 0.0 0.00 0.40 0.00 95 1011.1
20260906070001 73 360 0.0 0.0 0.00 0.40 0.00 95 1011.2
20260906065457 73 360 0.0 0.0 0.00 0.40 0.00 95 1011.1
20260906064957 73 360 0.0 0.0 0.00 0.40 0.00 95 1011.1
20260906064457 73 360 0.0 0.0 0.00 0.40 0.00 95 1011.2
20260906063957 73 360 0.0 0.0 0.00 0.40 0.00 95 1011.3
20260906063457 73 360 0.0 0.0 0.00 0.40 0.00 95 1011.4
20260906062958 73 360 0.0 0.0 0.00 0.40 0.00 95 1011.3
20260906062457 73 360 0.0 0.0 0.00 0.40 0.00 95 1011.4
20260906061958 73 360 0.0 0.0 0.00 0.40 0.00 95 1011.4
20260906060958 73 360 0.0 0.0 0.00 0.40 0.00 95 1011.5
20260906060458 73 360 0.0 0.0 0.00 0.40 0.00 95 1011.5
20260906060000 73 360 0.0 0.0 0.00 0.40 0.00 95 1011.8
20260906055458 73 360 0.0 0.0 0.00 0.40 0.00 94 1011.8
20260906054958 73 360 0.0 0.0 0.00 0.40 0.00 94 1011.8
20260906054458 73 360 0.0 0.0 0.00 0.40 0.00 94 1011.8
20260906053957 73 360 0.0 0.0 0.00 0.40 0.00 94 1011.9
20260906053459 73 360 0.0 0.0 0.00 0.40 0.00 94 1012.1
20260906052958 73 360 0.0 0.0 0.00 0.40 0.00 94 1012.2
20260906052458 73 360 0.0 0.0 0.00 0.40 0.00 94 1012.1
20260906051958 73 360 0.0 0.0 0.00 0.40 0.00 94 1012.3
20260906051459 73 360 0.0 0.0 0.00 0.40 0.00 94 1012.4
20260906050958 73 360 0.0 0.0 0.00 0.40 0.00 94 1012.4
20260906045959 73 219 0.0 0.0 0.00 0.40 0.00 94 1012.5
20260906045457 73 219 0.0 0.0 0.00 0.40 0.00 94 1012.5
20260906044456 73 219 0.0 0.0 0.00 0.40 0.00 94 1012.5
20260906043957 73 219 0.0 0.0 0.00 0.40 0.00 94 1012.4
20260906043457 73 219 0.0 0.0 0.00 0.40 0.00 94 1012.4
20260906042501 73 277 0.0 0.0 0.00 0.40 0.00 94 1012.4
20260906042002 73 184 0.0 0.0 0.00 0.40 0.00 94 1012.4
20260906041501 73 184 0.0 0.0 0.00 0.40 0.00 94 1012.5
20260906040501 73 184 0.0 0.0 0.00 0.40 0.00 94 1012.4
20260906040006 73 184 0.0 0.0 0.00 0.40 0.00 94 1012.3
20260906035500 73 184 0.0 0.0 0.00 0.40 0.40 94 1012.4
20260906035001 73 184 0.0 0.0 0.00 0.40 0.40 94 1012.6
20260906034501 73 184 0.0 0.0 0.00 0.40 0.40 94 1012.7
20260906034001 73 184 0.0 0.0 0.00 0.40 0.40 94 1012.5
20260906033501 73 184 0.0 0.0 0.00 0.40 0.40 94 1012.6
20260906033001 73 184 0.0 0.0 0.00 0.40 0.40 94 1012.6
20260906032502 73 184 0.0 0.0 0.00 0.40 0.40 94 1012.7
20260906032001 73 184 0.0 0.0 0.00 0.40 0.40 94 1012.8
20260906031503 74 184 0.0 0.0 0.00 0.40 0.40 94 1012.8
20260906031003 74 184 0.0 0.0 0.00 0.40 0.40 94 1012.7
20260906030005 74 184 0.0 0.0 0.00 0.40 0.40 94 1012.8
20260906025500 74 184 0.0 0.0 0.00 0.40 0.40 94 1012.7
20260906024500 74 184 0.0 0.0 0.00 0.40 0.40 94 1012.8
20260906023959 74 184 0.0 0.0 0.00 0.40 0.40 94 1012.8
20260906023459 74 184 0.0 0.0 0.00 0.40 0.40 94 1012.8
20260906023000 74 184 0.0 0.0 0.00 0.40 0.40 94 1012.9
20260906021500 74 184 0.0 0.0 0.00 0.40 0.40 94 1012.9
20260906021000 74 184 0.0 0.0 0.00 0.40 0.40 94 1012.7
20260906020500 74 184 0.0 0.0 0.00 0.40 0.40 94 1012.6
20260906020003 74 184 0.0 0.0 0.00 0.40 0.40 94 1012.7
20260906014959 74 184 0.0 0.0 0.00 0.40 0.40 94 1012.6
20260906014501 74 184 0.0 0.0 0.00 0.40 0.40 94 1012.6
20260906014001 74 184 0.0 0.0 0.00 0.40 0.40 93 1012.6
20260906013000 74 184 0.0 0.0 0.00 0.40 0.40 93 1012.3
20260906012459 74 184 0.0 0.0 0.00 0.40 0.40 93 1012.2
20260906012001 74 184 0.0 0.0 0.00 0.40 0.40 93 1012.1
20260906011500 74 184 0.0 0.0 0.00 0.40 0.40 93 1011.9
20260906011000 74 184 0.0 0.0 0.00 0.40 0.40 93 1012.0
20260906010501 74 184 0.0 0.0 0.00 0.40 0.40 93 1012.2
20260906005000 75 184 0.0 2.0 0.00 0.40 0.40 93 1012.0
20260906004459 75 184 0.0 1.0 0.00 0.40 0.40 93 1012.1
20260906003959 75 184 0.0 1.0 0.00 0.40 0.40 93 1012.1
20260906003459 75 184 0.0 2.0 0.00 0.40 0.40 93 1012.0
20260906003001 75 184 1.0 2.0 0.00 0.40 0.40 93 1012.0
20260906002459 75 184 0.0 2.0 0.00 0.40 0.40 93 1011.9
20260906002001 75 184 0.0 2.0 0.00 0.40 0.40 93 1011.9
20260906000959 75 184 0.0 1.0 0.00 0.40 0.40 93 1011.5
20260906000500 75 184 0.0 1.0 0.00 0.40 0.40 93 1011.5
20260906000005 75 184 0.0 2.0 0.00 0.40 0.40 93 1011.4
20260905235501 75 184 1.0 2.0 0.00 0.40 0.40 93 1011.3
20260905235000 75 355 1.0 3.0 0.00 0.40 0.40 93 1011.2
20260905234459 75 355 2.0 3.0 0.00 0.40 0.40 93 1011.2
20260905233459 75 40 1.0 2.0 0.00 0.40 0.40 93 1010.9
20260905233000 75 40 1.0 4.0 0.00 0.40 0.40 93 1010.7
20260905232000 75 305 2.0 4.0 0.00 0.40 0.40 93 1010.9
20260905231500 75 305 2.0 3.0 0.00 0.40 0.40 93 1010.9
20260905230959 75 305 0.0 2.0 0.00 0.40 0.40 93 1010.6
20260905230459 75 305 0.0 3.0 0.00 0.40 0.40 93 1010.6
20260905225000 75 130 1.0 6.0 0.00 0.40 0.40 93 1010.2
20260905223000 75 121 2.0 3.0 0.01 0.40 0.40 92 1010.3
20260905221501 75 346 1.0 2.0 0.02 0.40 0.40 91 1010.5
20260905221000 75 346 0.0 1.0 0.02 0.40 0.40 91 1010.6
20260905220501 75 346 0.0 3.0 0.02 0.40 0.40 91 1010.5
20260905220003 75 346 1.0 3.0 0.02 0.40 0.40 91 1010.6
20260905215459 75 194 1.0 2.0 0.02 0.40 0.40 91 1010.7
20260905215001 75 194 1.0 5.0 0.02 0.40 0.40 91 1010.8
20260905214500 76 194 2.0 5.0 0.01 0.39 0.39 91 1010.9
20260905214000 76 224 3.0 5.0 0.01 0.39 0.39 91 1010.7
20260905213500 75 278 0.0 2.0 0.02 0.39 0.39 91 1010.3
20260905212459 75 278 1.0 2.0 0.35 0.38 0.38 90 1010.5
20260905211959 75 278 1.0 4.0 0.38 0.38 0.38 90 1010.6
20260905211500 75 278 3.0 5.0 0.38 0.38 0.38 89 1010.7
20260905210959 76 312 4.0 5.0 0.38 0.38 0.38 89 1010.7
20260905210459 76 157 1.0 6.0 0.38 0.38 0.38 89 1010.4
20260905210002 76 160 4.0 8.0 0.38 0.38 0.38 89 1010.5
20260905205459 76 157 3.0 11.0 0.38 0.38 0.38 88 1010.4
20260905204459 76 71 3.0 7.0 0.38 0.38 0.38 87 1010.3
20260905203459 77 78 5.0 16.0 0.37 0.37 0.37 82 1010.7
20260905203000 80 41 5.0 20.0 0.19 0.19 0.19 74 1011.4
20260905202741 82 259 11.0 20.0 0.12 0.12 0.12 72 1011.5
20260905201500 91 44 11.0 22.0 0.00 0.00 0.00 58 1010.0
20260905200003 96 26 2.0 4.0 0.00 0.00 0.00 54 1009.8
20260905195459 96 30 1.0 3.0 0.00 0.00 0.00 54 1009.5
20260905194459 96 33 2.0 4.0 0.00 0.00 0.00 51 1009.9
20260905194000 96 42 3.0 5.0 0.00 0.00 0.00 52 1009.9
20260905193459 96 344 3.0 6.0 0.00 0.00 0.00 52 1009.7
20260905192959 96 63 3.0 9.0 0.00 0.00 0.00 53 1009.7
20260905192459 96 355 4.0 10.0 0.00 0.00 0.00 52 1009.7
20260905192001 96 23 4.0 10.0 0.00 0.00 0.00 52 1009.9
20260905191500 97 13 4.0 9.0 0.00 0.00 0.00 52 1009.9
20260905191000 98 251 2.0 9.0 0.00 0.00 0.00 49 1009.9
20260905190002 98 319 2.0 8.0 0.00 0.00 0.00 50 1009.9
20260905185458 98 355 4.0 6.0 0.00 0.00 0.00 51 1009.9
20260905184958 98 255 2.0 5.0 0.00 0.00 0.00 50 1009.9
20260905184458 98 9 2.0 5.0 0.00 0.00 0.00 49 1010.0
20260905183958 97 182 2.0 11.0 0.00 0.00 0.00 51 1010.1
20260905183458 97 284 7.0 11.0 0.00 0.00 0.00 53 1010.2
20260905182958 97 185 4.0 11.0 0.00 0.00 0.00 51 1010.3
20260905182500 97 298 4.0 8.0 0.00 0.00 0.00 51 1010.4
20260905181958 97 355 3.0 7.0 0.00 0.00 0.00 51 1010.5
20260905181459 96 253 3.0 10.0 0.00 0.00 0.00 52 1010.6
20260905180500 96 335 3.0 8.0 0.00 0.00 0.00 54 1010.9
20260905180003 96 317 5.0 11.0 0.00 0.00 0.00 53 1011.1
20260905175458 96 175 1.0 11.0 0.00 0.00 0.00 53 1011.1
20260905174458 95 298 4.0 9.0 0.00 0.00 0.00 53 1011.3
20260905173958 95 5 3.0 13.0 0.00 0.00 0.00 55 1011.4
20260905173458 95 297 8.0 13.0 0.00 0.00 0.00 55 1011.6
20260905173000 95 267 3.0 9.0 0.00 0.00 0.00 56 1011.7
20260905172458 95 252 5.0 9.0 0.00 0.00 0.00 55 1011.8
20260905171958 95 337 4.0 13.0 0.00 0.00 0.00 56 1011.8
20260905171458 95 245 4.0 9.0 0.00 0.00 0.00 55 1011.8
20260905170458 94 297 4.0 10.0 0.00 0.00 0.00 56 1012.0
20260905170002 94 327 4.0 10.0 0.00 0.00 0.00 55 1012.1
20260905165458 94 266 4.0 9.0 0.00 0.00 0.00 56 1012.0
20260905164959 94 298 4.0 8.0 0.00 0.00 0.00 57 1012.0
20260905164459 93 10 4.0 9.0 0.00 0.00 0.00 58 1012.1
20260905163958 93 269 4.0 9.0 0.00 0.00 0.00 58 1012.2
20260905163458 93 321 4.0 12.0 0.00 0.00 0.00 57 1012.3
20260905162959 93 277 5.0 12.0 0.00 0.00 0.00 58 1012.3
20260905162458 93 324 4.0 9.0 0.00 0.00 0.00 58 1012.3
20260905161958 92 254 5.0 9.0 0.00 0.00 0.00 60 1012.5
20260905161459 92 255 3.0 9.0 0.00 0.00 0.00 60 1012.6
20260905160958 92 5 6.0 9.0 0.00 0.00 0.00 60 1012.7
20260905160459 92 282 3.0 10.0 0.00 0.00 0.00 61 1012.6
20260905155458 91 262 3.0 9.0 0.00 0.00 0.00 62 1012.9
20260905154959 91 292 4.0 10.0 0.00 0.00 0.00 63 1013.1
20260905154458 91 286 6.0 10.0 0.00 0.00 0.00 64 1013.1
20260905153959 90 280 5.0 10.0 0.00 0.00 0.00 62 1013.1
20260905153458 90 224 5.0 8.0 0.00 0.00 0.00 63 1013.2
20260905152958 90 261 5.0 9.0 0.00 0.00 0.00 65 1013.2
20260905152458 90 264 4.0 9.0 0.00 0.00 0.00 65 1013.1
20260905151958 90 313 3.0 8.0 0.00 0.00 0.00 66 1013.2
20260905151458 89 269 4.0 9.0 0.00 0.00 0.00 68 1013.2
20260905150958 89 248 5.0 9.0 0.00 0.00 0.00 66 1013.4
20260905150458 88 261 2.0 7.0 0.00 0.00 0.00 69 1013.3
20260905150001 88 315 4.0 8.0 0.00 0.00 0.00 69 1013.3
20260905145458 87 272 4.0 8.0 0.00 0.00 0.00 70 1013.2
20260905144959 87 269 4.0 10.0 0.00 0.00 0.00 70 1013.2
20260905143958 87 254 3.0 9.0 0.00 0.00 0.00 71 1013.3
20260905143458 86 323 6.0 9.0 0.00 0.00 0.00 71 1013.3
20260905142958 86 298 4.0 9.0 0.00 0.00 0.00 72 1013.2
20260905142458 85 248 3.0 9.0 0.00 0.00 0.00 73 1013.2
20260905141958 85 269 5.0 9.0 0.00 0.00 0.00 73 1013.3
20260905141458 85 292 5.0 8.0 0.00 0.00 0.00 74 1013.3
20260905140958 85 284 4.0 8.0 0.00 0.00 0.00 74 1013.2
20260905140458 85 258 4.0 8.0 0.00 0.00 0.00 75 1013.1
20260905140002 84 261 2.0 5.0 0.00 0.00 0.00 77 1013.1
20260905135459 84 259 2.0 4.0 0.00 0.00 0.00 78 1013.2
20260905134459 83 229 4.0 8.0 0.00 0.00 0.00 78 1013.1
20260905133958 83 261 3.0 8.0 0.00 0.00 0.00 80 1013.2
20260905133458 82 263 3.0 10.0 0.00 0.00 0.00 80 1013.3
20260905132957 82 242 6.0 10.0 0.00 0.00 0.00 80 1013.2
20260905131958 81 211 3.0 7.0 0.00 0.00 0.00 83 1013.4
20260905130958 80 260 2.0 9.0 0.00 0.00 0.00 84 1013.4
20260905130458 80 283 3.0 9.0 0.00 0.00 0.00 85 1013.5
20260905130002 79 276 3.0 7.0 0.00 0.00 0.00 85 1013.5
20260905124958 79 232 4.0 7.0 0.00 0.00 0.00 86 1013.6
20260905124458 78 273 3.0 5.0 0.00 0.00 0.00 87 1013.6
20260905123958 78 250 3.0 5.0 0.00 0.00 0.00 88 1013.6
20260905123458 77 230 1.0 6.0 0.00 0.00 0.00 90 1013.5
20260905122958 77 251 2.0 6.0 0.00 0.00 0.00 90 1013.5
20260905122458 76 181 2.0 5.0 0.00 0.00 0.00 92 1013.5
20260905121959 75 182 2.0 3.0 0.00 0.00 0.00 92 1013.5
20260905121458 75 246 1.0 3.0 0.00 0.00 0.00 92 1013.6
20260905120958 74 277 1.0 4.0 0.00 0.00 0.00 92 1013.6
20260905120458 74 277 2.0 4.0 0.00 0.00 0.00 93 1013.7